Regional Weather Roundup
Issued by NWS New Orleans/Baton Rouge, LA

Home | Current Version | Previous Version | Graphics & Text | Print | Product List | Glossary On
Versions: 1 2 3 4 5 6 7 8 9 10 11 12 13 14 15 16 17 18 19 20 21 22 23 24 25 26 27 28 29 30 31 32 33 34 35 36 37 38 39 40 41 42 43 44 45 46 47 48 49 50
800
ASUS44 KLIX 161101
RWRLIX
NEW ORLEANS REGIONAL WEATHER ROUNDUP
NATIONAL WEATHER SERVICE NEW ORLEANS LA
600 AM CDT TUE SEP 16 2014

NOTE: "FAIR" INDICATES FEW OR NO CLOUDS BELOW 12,000 FEET WITH NO
      SIGNIFICANT WEATHER AND/OR OBSTRUCTIONS TO VISIBILITY.
      SKY/WX - SKY CONDITION AND SIGNIFICANT WEATHER.
      TMP - AIR TEMPERATURE.     DP    - DEWPOINT TEMPERATURE.
      RH  - RELATIVE HUMIDITY.   PRES  - PRESSURE.
      HI  - HEAT INDEX.          WCI   - WIND CHILL INDEX.

*  THESE STATIONS ARE NOT NWS OR FAA STATIONS AND ARE NOT UNDER
   NWS QUALITY CONTROL.

LAZ038-040-048-061>063-065>067-069-161200-
SOUTHEAST LOUISIANA

CITY           SKY/WX    TMP DP  RH WIND       PRES   REMARKS
N.O. AUDUBON     N/A     78  77  95 MISG        N/A
N.O. INTL ARPT PTCLDY    76  74  93 CALM      30.05S
N.O. LAKEFRONT CLEAR     81  76  84 NW7       30.05S
N.O. DOWNTOWN*   N/A     81  72  74 CALM      30.06S
SLIDELL        CLEAR     73  70  90 CALM      30.05R
BATON ROUGE    CLEAR     73  72  96 CALM      30.06S
BOOTHVILLE     LGT RAIN  78  76  93 SW8       30.07R
BELLE CHASSE   MOCLDY    75  71  87 CALM      30.05S
BOGALUSA*      CLOUDY    74  71  89 CALM      30.08R FOG
GALLIANO*      NOT AVBL
NEW ROADS*       N/A     72  71  98 CALM      30.06S FOG
GONZALES*        N/A     73  73 100 CALM      30.06R
HAMMOND*       NOT AVBL
HOUMA*         PTCLDY    73  72  94 CALM      30.06S
PORT FOURCHON* CLOUDY    77  73  88 NW7G14    30.09S FOG

$$

MSZ070-080>082-161200-
SOUTHERN MISSISSIPPI

CITY           SKY/WX    TMP DP  RH WIND       PRES   REMARKS
MCCOMB         MOCLDY    75  73  93 CALM      30.07R
GULFPORT       CLEAR     75  72  90 CALM      30.04S
BILOXI         CLEAR     75  73  91 NE3       30.05R
PASCAGOULA     FOG       74  74 100 CALM      30.05S VSB 1/2

$$

COASTAL OBSERVATIONS
LAKE AND NEARSHORE STATIONS

STATION/POSITION TIME  TEMP    WIND        PRES    WAVE
                       AIR SEA DIR/SP/G            HT/PER
                 (UTC) (F)     (DEG/KT/KT) (MB)    (FT/S)
PASCAGOULA       1000   78      20/  2/  3   N/A
WAVELAND YACHT   1000   77     340/  5/  8   N/A
GRAND ISLE       1000   80 86  210/  7/ 10   N/A
SOUTHWEST PASS   1000   79 90  240/ 19/ 22   N/A
NEW CANAL        1000   80 82  210/  2/  3   N/A
SHELL BEACH      1000   80 80  250/  5/  7   N/A

OFFSHORE STATIONS

STATION/POSITION TIME  TEMP    WIND        PRES    WAVE
                       AIR SEA DIR/SP/G            HT/PER
                 (UTC) (F)     (DEG/KT/KT) (MB)    (FT/S)
64 S DAUPHIN ISL 1047   81 85  260/ 16/ 23 1018.3    3/ 6

$$




USA.gov is the U.S. government's official web portal to all federal, state and local government web resources and services.